GLO1149 SBCT-SBGR

Flight info

Callsign GLO1149
Flight time 0h 37m
Altitude 27000
Route XONUG UZ121 BUXUK
Aircraft B738/M-SDFGIKLORWXY/LB1

Departure

Time 2026-05-09 00:45
Airport Curitiba-Afonso Pena International Airport (SBCT)

Arrival

Time 2026-05-09 01:22
Airport São Paulo/Guarulhos–Governor André Franco Montoro International Airport (SBGR)
Time Latitude Longitude Altitude Speed Heading
2026-05-09 00:38 -25.53456 -49.17339 2995 ft 0 kts 222°
2026-05-09 00:38 -25.53454 -49.17337 2995 ft 2 kts 222°
2026-05-09 00:38 -25.53441 -49.17325 2995 ft 2 kts 220°
2026-05-09 00:39 -25.53428 -49.17313 2995 ft 2 kts 216°
2026-05-09 00:39 -25.53415 -49.17304 2995 ft 2 kts 196°
2026-05-09 00:39 -25.53399 -49.17305 2995 ft 2 kts 140°
2026-05-09 00:39 -25.53395 -49.17310 2995 ft 0 kts 136°
2026-05-09 00:41 -25.53386 -49.17269 2995 ft 5 kts 52°
2026-05-09 00:41 -25.53372 -49.17230 2995 ft 6 kts 93°
2026-05-09 00:41 -25.53391 -49.17193 2995 ft 6 kts 131°
2026-05-09 00:41 -25.53418 -49.17162 2995 ft 5 kts 135°
2026-05-09 00:42 -25.53446 -49.17131 2995 ft 6 kts 135°
2026-05-09 00:42 -25.53484 -49.17089 2995 ft 9 kts 135°
2026-05-09 00:42 -25.53535 -49.17031 2995 ft 11 kts 134°
2026-05-09 00:42 -25.53588 -49.16970 2995 ft 11 kts 129°
2026-05-09 00:43 -25.53613 -49.16894 2994 ft 11 kts 91°
2026-05-09 00:43 -25.53611 -49.16813 2994 ft 10 kts 92°
2026-05-09 00:43 -25.53607 -49.16743 2994 ft 5 kts 63°
2026-05-09 00:43 -25.53597 -49.16744 2993 ft 1 kts 350°
2026-05-09 00:44 -25.53587 -49.16752 2993 ft 3 kts 321°
2026-05-09 00:44 -25.53488 -49.16861 2993 ft 58 kts 314°
2026-05-09 00:44 -25.52996 -49.17413 2996 ft 140 kts 315°
2026-05-09 00:44 -25.52184 -49.18366 3359 ft 184 kts 314°
2026-05-09 00:45 -25.51369 -49.19367 4777 ft 157 kts 315°
2026-05-09 00:45 -25.50642 -49.20228 5915 ft 159 kts 314°
2026-05-09 00:45 -25.49889 -49.21261 6163 ft 191 kts 298°
2026-05-09 00:45 -25.49583 -49.22227 6402 ft 206 kts 294°
2026-05-09 00:46 -25.48789 -49.24320 6975 ft 233 kts 300°
2026-05-09 00:46 -25.48035 -49.25920 7895 ft 235 kts 306°
2026-05-09 00:46 -25.46836 -49.27142 8808 ft 240 kts 329°
2026-05-09 00:46 -25.45771 -49.27580 9454 ft 247 kts 342°
2026-05-09 00:47 -25.44019 -49.27731 10328 ft 262 kts 357°
2026-05-09 00:47 -25.42138 -49.27193 10659 ft 300 kts 15°
2026-05-09 00:47 -25.40172 -49.26133 11042 ft 325 kts 20°
2026-05-09 00:47 -25.37501 -49.24573 12139 ft 330 kts 20°
2026-05-09 00:48 -25.36116 -49.23784 12704 ft 333 kts 20°
2026-05-09 00:48 -25.34058 -49.22633 13473 ft 339 kts 20°
2026-05-09 00:48 -25.32071 -49.21137 14181 ft 357 kts 36°
2026-05-09 00:48 -25.30285 -49.19186 14834 ft 363 kts 38°
2026-05-09 00:49 -25.28487 -49.17187 15510 ft 370 kts 38°
2026-05-09 00:49 -25.26659 -49.15155 16187 ft 375 kts 38°
2026-05-09 00:49 -25.24803 -49.13101 16858 ft 380 kts 38°
2026-05-09 00:49 -25.22920 -49.11028 17516 ft 385 kts 38°
2026-05-09 00:50 -25.21009 -49.08932 18166 ft 390 kts 38°
2026-05-09 00:50 -25.19068 -49.06809 18763 ft 393 kts 38°
2026-05-09 00:50 -25.17123 -49.04684 19399 ft 396 kts 38°
2026-05-09 00:50 -25.15148 -49.02532 19948 ft 401 kts 38°
2026-05-09 00:51 -25.13146 -49.00353 20499 ft 406 kts 38°
2026-05-09 00:51 -25.11121 -48.98150 21069 ft 410 kts 39°
2026-05-09 00:51 -25.09078 -48.95929 21646 ft 414 kts 39°
2026-05-09 00:51 -25.07026 -48.93697 22320 ft 414 kts 39°
2026-05-09 00:52 -25.04978 -48.91470 23106 ft 412 kts 39°
2026-05-09 00:52 -25.02936 -48.89250 23846 ft 410 kts 39°
2026-05-09 00:52 -25.00910 -48.87048 24507 ft 409 kts 39°
2026-05-09 00:52 -24.98908 -48.84877 25136 ft 408 kts 39°
2026-05-09 00:53 -24.96886 -48.82685 25779 ft 407 kts 39°
2026-05-09 00:53 -24.94865 -48.80495 26449 ft 406 kts 39°
2026-05-09 00:53 -24.92846 -48.78310 26878 ft 408 kts 39°
2026-05-09 00:53 -24.90831 -48.76129 26922 ft 404 kts 38°
2026-05-09 00:54 -24.88827 -48.73960 26955 ft 405 kts 38°
2026-05-09 00:54 -24.86809 -48.71781 26955 ft 406 kts 38°
2026-05-09 00:54 -24.84785 -48.69595 26960 ft 407 kts 38°
2026-05-09 00:54 -24.82762 -48.67410 26972 ft 408 kts 38°
2026-05-09 00:55 -24.80728 -48.65214 26943 ft 409 kts 38°
2026-05-09 00:55 -24.78694 -48.63019 26963 ft 409 kts 39°
2026-05-09 00:55 -24.76666 -48.60830 26941 ft 408 kts 39°
2026-05-09 00:55 -24.74643 -48.58648 26936 ft 407 kts 39°
2026-05-09 00:56 -24.72651 -48.56500 26966 ft 405 kts 39°
2026-05-09 00:56 -24.70612 -48.54300 26952 ft 405 kts 39°
2026-05-09 00:56 -24.68599 -48.52138 26920 ft 404 kts 38°
2026-05-09 00:56 -24.66620 -48.50013 26938 ft 402 kts 38°
2026-05-09 00:57 -24.64623 -48.47864 26931 ft 401 kts 38°
2026-05-09 00:57 -24.62627 -48.45716 26935 ft 401 kts 38°
2026-05-09 00:57 -24.60633 -48.43573 26911 ft 401 kts 38°
2026-05-09 00:57 -24.58637 -48.41425 26937 ft 400 kts 38°
2026-05-09 00:58 -24.56644 -48.39287 26928 ft 401 kts 38°
2026-05-09 00:58 -24.54645 -48.37142 26934 ft 401 kts 39°
2026-05-09 00:58 -24.52648 -48.34999 26938 ft 401 kts 38°
2026-05-09 00:58 -24.50648 -48.32856 26931 ft 401 kts 38°
2026-05-09 00:59 -24.48655 -48.30720 26949 ft 401 kts 38°
2026-05-09 00:59 -24.46682 -48.28607 26938 ft 401 kts 38°
2026-05-09 00:59 -24.44681 -48.26466 26943 ft 402 kts 38°
2026-05-09 00:59 -24.42682 -48.24325 26945 ft 401 kts 38°
2026-05-09 01:00 -24.40685 -48.22187 26914 ft 401 kts 38°
2026-05-09 01:00 -24.38680 -48.20043 26932 ft 401 kts 38°
2026-05-09 01:00 -24.36677 -48.17902 26937 ft 401 kts 39°
2026-05-09 01:00 -24.34641 -48.15812 26931 ft 397 kts 31°
2026-05-09 01:01 -24.32301 -48.14283 26954 ft 389 kts 21°
2026-05-09 01:01 -24.29907 -48.12907 26940 ft 389 kts 21°
2026-05-09 01:01 -24.27506 -48.11529 26921 ft 387 kts 21°
2026-05-09 01:01 -24.25155 -48.10173 26946 ft 388 kts 21°
2026-05-09 01:02 -24.22764 -48.08786 26944 ft 389 kts 22°
2026-05-09 01:02 -24.20376 -48.07393 26934 ft 389 kts 22°
2026-05-09 01:02 -24.17994 -48.05970 26952 ft 391 kts 23°
2026-05-09 01:02 -24.15602 -48.04533 26946 ft 391 kts 22°
2026-05-09 01:03 -24.13204 -48.03132 26932 ft 391 kts 21°
2026-05-09 01:03 -24.10804 -48.01738 26942 ft 391 kts 21°
2026-05-09 01:03 -24.08400 -48.00339 26935 ft 392 kts 22°
2026-05-09 01:03 -24.05996 -47.98935 26937 ft 392 kts 22°
2026-05-09 01:04 -24.03588 -47.97525 26941 ft 392 kts 22°
2026-05-09 01:04 -24.01182 -47.96113 26922 ft 393 kts 22°
2026-05-09 01:04 -23.98794 -47.94712 26936 ft 393 kts 22°
2026-05-09 01:04 -23.96362 -47.93285 26939 ft 393 kts 22°
2026-05-09 01:05 -23.93949 -47.91870 26943 ft 393 kts 22°
2026-05-09 01:05 -23.91536 -47.90455 26941 ft 393 kts 22°
2026-05-09 01:05 -23.86712 -47.87629 26951 ft 393 kts 22°
2026-05-09 01:06 -23.84299 -47.86215 26945 ft 393 kts 22°
2026-05-09 01:06 -23.81888 -47.84803 26948 ft 393 kts 22°
2026-05-09 01:06 -23.79480 -47.83394 26947 ft 393 kts 22°
2026-05-09 01:06 -23.77099 -47.81998 26947 ft 393 kts 23°
2026-05-09 01:07 -23.74868 -47.80213 26943 ft 403 kts 37°
2026-05-09 01:07 -23.72864 -47.78059 26947 ft 404 kts 39°
2026-05-09 01:07 -23.70876 -47.75858 26944 ft 404 kts 39°
2026-05-09 01:07 -23.68902 -47.73710 26949 ft 404 kts 38°
2026-05-09 01:08 -23.66886 -47.71568 26957 ft 404 kts 38°
2026-05-09 01:08 -23.64865 -47.69443 26960 ft 404 kts 38°
2026-05-09 01:08 -23.62831 -47.67311 26958 ft 404 kts 38°
2026-05-09 01:08 -23.60825 -47.65205 26954 ft 404 kts 38°
2026-05-09 01:09 -23.58817 -47.63094 26950 ft 397 kts 38°
2026-05-09 01:09 -23.56850 -47.61024 26950 ft 388 kts 38°
2026-05-09 01:09 -23.54939 -47.59011 26925 ft 375 kts 37°
2026-05-09 01:09 -23.53084 -47.57060 26687 ft 368 kts 37°
2026-05-09 01:10 -23.51213 -47.55105 25934 ft 378 kts 37°
2026-05-09 01:10 -23.49315 -47.53125 25299 ft 384 kts 37°
2026-05-09 01:10 -23.47385 -47.51105 24880 ft 383 kts 37°
2026-05-09 01:10 -23.45475 -47.49100 24561 ft 379 kts 37°
2026-05-09 01:11 -23.43680 -47.46989 24201 ft 385 kts 51°
2026-05-09 01:11 -23.42534 -47.44313 23822 ft 394 kts 68°
2026-05-09 01:11 -23.42009 -47.41372 23386 ft 400 kts 83°
2026-05-09 01:11 -23.41957 -47.38335 22584 ft 401 kts 87°
2026-05-09 01:12 -23.42009 -47.35300 21836 ft 399 kts 88°
2026-05-09 01:12 -23.42085 -47.32285 21104 ft 397 kts 88°
2026-05-09 01:12 -23.42156 -47.29293 20396 ft 394 kts 88°
2026-05-09 01:12 -23.42214 -47.26314 19683 ft 391 kts 88°
2026-05-09 01:13 -23.42259 -47.23365 18998 ft 387 kts 87°
2026-05-09 01:13 -23.42296 -47.20450 18330 ft 383 kts 87°
2026-05-09 01:13 -23.42326 -47.17578 17574 ft 380 kts 87°
2026-05-09 01:13 -23.42353 -47.14753 16832 ft 376 kts 87°
2026-05-09 01:14 -23.42379 -47.11886 16035 ft 373 kts 87°
2026-05-09 01:14 -23.42403 -47.09107 15285 ft 370 kts 87°
2026-05-09 01:14 -23.42426 -47.06317 14544 ft 368 kts 87°
2026-05-09 01:14 -23.42450 -47.03538 13826 ft 365 kts 87°
2026-05-09 01:15 -23.42471 -47.00786 13024 ft 363 kts 87°
2026-05-09 01:15 -23.42492 -46.98044 12224 ft 360 kts 87°
2026-05-09 01:15 -23.42516 -46.95326 11441 ft 357 kts 86°
2026-05-09 01:15 -23.42538 -46.92645 10690 ft 353 kts 86°
2026-05-09 01:16 -23.42558 -46.89981 9983 ft 349 kts 86°
2026-05-09 01:16 -23.42579 -46.87373 9438 ft 339 kts 86°
2026-05-09 01:16 -23.42599 -46.84844 8940 ft 329 kts 85°
2026-05-09 01:17 -23.42633 -46.79994 8078 ft 311 kts 85°
2026-05-09 01:17 -23.42649 -46.77669 7714 ft 302 kts 85°
2026-05-09 01:17 -23.42664 -46.75412 7338 ft 294 kts 85°
2026-05-09 01:17 -23.42679 -46.73219 7029 ft 285 kts 84°
2026-05-09 01:18 -23.42748 -46.71105 6689 ft 276 kts 94°
2026-05-09 01:18 -23.43463 -46.69188 6345 ft 272 kts 118°
2026-05-09 01:18 -23.44496 -46.67505 5968 ft 262 kts 122°
2026-05-09 01:18 -23.45525 -46.65915 5606 ft 253 kts 123°
2026-05-09 01:19 -23.46516 -46.64366 5242 ft 246 kts 122°
2026-05-09 01:19 -23.47378 -46.62802 4861 ft 233 kts 103°
2026-05-09 01:19 -23.47371 -46.61192 4488 ft 199 kts 62°
2026-05-09 01:19 -23.46904 -46.59843 4150 ft 188 kts 68°
2026-05-09 01:20 -23.46597 -46.58531 4097 ft 174 kts 67°
2026-05-09 01:20 -23.46222 -46.57304 4073 ft 170 kts 64°
2026-05-09 01:20 -23.45888 -46.56055 3832 ft 170 kts 69°
2026-05-09 01:20 -23.45539 -46.54869 3610 ft 161 kts 69°
2026-05-09 01:21 -23.45231 -46.53744 3435 ft 155 kts 70°
2026-05-09 01:21 -23.44928 -46.52613 3233 ft 152 kts 71°
2026-05-09 01:21 -23.44625 -46.51506 3047 ft 154 kts 72°
2026-05-09 01:21 -23.44332 -46.50373 2868 ft 157 kts 74°
2026-05-09 01:22 -23.44027 -46.49248 2633 ft 153 kts 74°
2026-05-09 01:22 -23.43743 -46.48193 2471 ft 140 kts 74°
2026-05-09 01:22 -23.43510 -46.47326 2472 ft 90 kts 73°
2026-05-09 01:22 -23.43402 -46.46990 2470 ft 22 kts 58°
2026-05-09 01:23 -23.43334 -46.46897 2470 ft 15 kts 48°
2026-05-09 01:23 -23.43267 -46.46826 2471 ft 13 kts 43°
2026-05-09 01:23 -23.43203 -46.46759 2469 ft 13 kts 44°
2026-05-09 01:23 -23.43128 -46.46711 2469 ft 14 kts
2026-05-09 01:24 -23.43038 -46.46734 2471 ft 15 kts 343°
2026-05-09 01:24 -23.42923 -46.46770 2470 ft 19 kts 344°
2026-05-09 01:24 -23.42813 -46.46804 2471 ft 16 kts 341°
2026-05-09 01:24 -23.42786 -46.46915 2469 ft 19 kts 253°
2026-05-09 01:25 -23.42826 -46.47062 2470 ft 22 kts 254°
2026-05-09 01:25 -23.42871 -46.47228 2467 ft 24 kts 253°
2026-05-09 01:25 -23.42909 -46.47368 2467 ft 18 kts 253°
2026-05-09 01:25 -23.42946 -46.47508 2467 ft 20 kts 253°
2026-05-09 01:26 -23.42982 -46.47638 2473 ft 15 kts 254°
2026-05-09 01:26 -23.43009 -46.47742 2467 ft 12 kts 254°
2026-05-09 01:26 -23.43016 -46.47768 2471 ft 3 kts 254°
2026-05-09 01:26 -23.43025 -46.47803 2471 ft 7 kts 253°
2026-05-09 01:27 -23.43044 -46.47866 2469 ft 11 kts 252°
2026-05-09 01:27 -23.43069 -46.47957 2471 ft 14 kts 253°
2026-05-09 01:27 -23.43099 -46.48064 2471 ft 14 kts 254°
2026-05-09 01:27 -23.43049 -46.48130 2470 ft 16 kts 354°
2026-05-09 01:28 -23.42954 -46.48139 2469 ft 12 kts 355°
2026-05-09 01:28 -23.42886 -46.48145 2469 ft 7 kts 354°
2026-05-09 01:28 -23.42831 -46.48152 2468 ft 9 kts 354°
2026-05-09 01:28 -23.42800 -46.48141 2471 ft 5 kts 65°
2026-05-09 01:29 -23.42795 -46.48089 2469 ft 8 kts 85°
2026-05-09 01:29 -23.42793 -46.48061 2469 ft 0 kts 85°